This demonstration page uses our WeatherBlox Daily Observations layout. Learn more.

Left ArrowRight Arrow

47.50024, -111.30081

Hourly Observations for July 2, 2022

Temp ( °F °C ) Dew Point ( °F °C ) Humidity (%) Winds ( mph kmh ) Pressure ( in mb ) Visibility ( mi km ) Precip ( " mm )
12:53 am 00:53 Clear 63 17.2 44 6.7 50 50 S 3 6 29.89 1012 10 16 0.00 0.00
1:53 am 01:53 Clear 60 15.6 44 6.7 56 56 ESE 3 6 29.89 1012 10 16 0.00 0.00
2:53 am 02:53 Clear 58 14.4 43 6.1 58 58 S 9 15 29.88 1012 10 16 0.00 0.00
3:18 am 03:18 Mostly Clear 59 15 43 6.1 56 56 SSW 9 15 29.86 1011 10 16 0.00 0.00
3:53 am 03:53 Mostly Clear 56 13.3 44 6.7 65 65 SW 9 15 29.88 1012 10 16 0.00 0.00
4:53 am 04:53 Clear 54 12.2 42 5.6 64 64 NW 10 17 29.93 1013 10 16 0.00 0.00
5:53 am 05:53 Sunny 52 11.1 44 6.7 75 75 NW 10 17 29.95 1014 10 16 0.00 0.00
6:53 am 06:53 Partly Cloudy 54 12.2 46 7.8 75 75 W 8 13 29.98 1015 10 16 0.00 0.00
7:53 am 07:53 Sunny 58 14.4 47 8.3 67 67 WNW 9 15 30.00 1016 10 16 0.00 0.00
8:53 am 08:53 Sunny 62 16.7 47 8.3 58 58 VRB 6 9 30.00 1016 10 16 0.00 0.00
9:53 am 09:53 Sunny 64 17.8 46 7.8 52 52 WSW 5 7 30.00 1016 10 16 0.00 0.00
10:53 am 10:53 Sunny 68 20 47 8.3 47 47 NNW 6 9 29.98 1015 10 16 0.00 0.00
11:53 am 11:53 Sunny 71 21.7 46 7.8 41 41 Calm 29.96 1015 10 16 0.00 0.00
12:53 pm 12:53 Sunny 75 23.9 46 7.8 36 36 VRB 5 7 29.94 1014 10 16 0.00 0.00
1:53 pm 13:53 Sunny 77 25 45 7.2 32 32 Calm 29.91 1013 10 16 0.00 0.00
2:53 pm 14:53 Sunny 79 26.1 45 7.2 30 30 undefined N/A 29.89 1012 10 16 0.00 0.00
3:53 pm 15:53 Sunny 82 27.8 46 7.8 28 28 VRB 5 7 29.87 1012 10 16 0.00 0.00
4:53 pm 16:53 Sunny 84 28.9 45 7.2 25 25 VRB 5 7 29.85 1011 10 16 0.00 0.00
5:53 pm 17:53 Sunny 82 27.8 43 6.1 25 25 E 5 7 29.83 1010 10 16 0.00 0.00
6:53 pm 18:53 Sunny 80 26.7 44 6.7 28 28 E 7 11 29.83 1010 10 16 0.00 0.00
7:53 pm 19:53 Sunny 75 23.9 46 7.8 36 36 NNW 5 7 29.85 1011 10 16 0.00 0.00
8:24 pm 20:24 Cloudy with Nearby Thunderstorms 74 23.3 46 7.8 37 37 SSW 17 28 29.74 1007 10 16 0.00 0.00
8:43 pm 20:43 Cloudy with Light Rain 60 15.6 52 11.1 75 75 SSW 23 37 29.86 1011 9 14 0.00 0.00
8:50 pm 20:50 Cloudy with Nearby Thunderstorms 61 16 52 11 72 72 WSW 16 26 29.88 1012 9 14 0.00 0.00
8:53 pm 20:53 Cloudy with Nearby Thunderstorms 60 15.6 52 11.1 75 75 WSW 14 22 29.95 1014 9 14 0.00 0.00
9:25 pm 21:25 Partly Cloudy 59 15 54 12.2 83 83 W 5 7 29.88 1012 10 16 0.00 0.00
9:53 pm 21:53 Clear 61 16.1 52 11.1 72 72 SE 8 13 29.93 1013 10 16 0.00 0.00
10:53 pm 22:53 Clear 61 16.1 52 11.1 72 72 SE 7 11 29.92 1013 10 16 0.00 0.00
11:53 pm 23:53 Clear 57 13.9 52 11.1 83 83 Calm 29.91 1013 10 16 0.00 0.00

Powered by AerisWeather